www.pogodaiklimat.ru

Погода и климат >> Архив погоды >> Австралия >> Северная территория >> Джаберу


ПОГОДА в Джаберу

  • Прогноз погоды в Джаберу
  • Монитор погоды в Джаберу

АРХИВ ПОГОДЫ в Джаберу

Время (UTC), дата Ветер
(напр.,м/с)
 
Видим.   Явления Облачность Т
(С)
Тd
(С)
f
(%)
Тe
(С)
Тes
(С)
Комфортность P
(гПа)
Po
(гПа)
Тmin
(С)
Tmax
(С)
R
(мм)
R24
(мм)
S
(см)
08 11.08 ЮВ 5 н/о н/о +31.6 +0.9 14 +29 +29 жарко 1011.8 1008.6
11 11.08 ЮВ 3 н/о н/о +27.7 +2.0 19 +26 +26 жарко 1014.3 1011.1
14 11.08 ЮВ 3 н/о н/о +25.2 +2.0 22 +24 +24 комфорт 1015.4 1012.2 +33.5
17 11.08 ЮВ 3 н/о н/о +21.7 +6.0 36 +22 +22 комфорт 1015.5 1012.3
20 11.08 ЮВ 2 н/о 1/0
[]
+19.4 +6.2 42 +21 +21 комфорт 1016.2 1013.0
23 11.08 ЮВ 4 н/о 5/0
[]
+22.5 +8.6 41 +24 +24 комфорт 1018.5 1015.3
02 12.08 ЮВ 4 н/о н/о +27.4 +5.1 24 +26 +26 жарко 1018.0 1014.8 +19.0
05 12.08 ЮВ 3 н/о н/о +30.7 +1.1 15 +28 +28 жарко 1014.3 1011.1
08 12.08 ЮВ 3 н/о н/о +30.4 -2.2 12 +27 +27 жарко 1013.8 1010.6
11 12.08 В 3 н/о н/о +23.1 +1.5 24 +22 +22 комфорт 1016.1 1012.9
14 12.08 ЮВ 3 н/о н/о +21.8 -0.2 23 +21 +21 комфорт 1016.3 1013.1 +31.8
17 12.08 В 3 н/о н/о +19.9 +4.0 35 +21 +21 комфорт 1015.7 1012.5
20 12.08 В 3 н/о н/о +18.1 +4.3 40 +18 +18 1016.5 1013.3
23 12.08 В 3 н/о н/о +21.1 +4.2 33 +21 +21 комфорт 1018.8 1015.6
02 13.08 В 5 н/о н/о +26.6 +4.4 24 +26 +26 жарко 1018.1 1014.9 +16.3
05 13.08 Ю 3 н/о 9/9 1500 м
[]
+28.6 +1.2 17 +26 +26 жарко 1014.6 1011.4
08 13.08 В 2 н/о 5/5 1500 м
[]
+28.8 +1.3 17 +27 +27 жарко 1014.0 1010.8
11 13.08 ЮВ 2 1000 м 1/1 <50 м
[]
+22.4 +4.9 32 +23 +23 комфорт 1016.0 1012.8
14 13.08 В 2 8000 м н/о +20.5 +1.9 29 +21 +21 комфорт 1017.0 1013.8 +30.0
17 13.08 В 2 н/о н/о +17.2 +5.5 46 +18 +18 1016.5 1013.3
20 13.08 штиль 0 5000 м н/о +16.3 +4.7 46 +16 +16 1016.6 1013.4
23 13.08 В 3 н/о н/о +21.7 +2.4 28 +22 +22 комфорт 1018.5 1015.3
02 14.08 В 6 н/о н/о +28.7 -0.5 15 +26 +26 жарко 1017.6 1014.4 +15.2
05 14.08 ЮВ 3 н/о н/о +31.0 +1.4 15 +28 +28 жарко 1014.2 1011.0
08 14.08 С 2 н/о н/о +31.9 +5.4 19 +30 +30 жарко 1013.6 1010.4
11 14.08 С 3 н/о н/о +25.5 +14.3 50 +28 +28 жарко 1015.7 1012.5
14 14.08 штиль 0 н/о н/о +21.4 +14.3 64 +24 +24 комфорт 1016.8 1013.6 +33.2
17 14.08 Ю 2 н/о 1/1 1000 м
[]
+20.2 +14.1 68 +23 +23 комфорт 1016.7 1013.5
20 14.08 штиль 0 н/о 1/1 1500 м
[]
+19.5 +14.3 72 +21 +21 комфорт 1016.4 1013.2
23 14.08 Ю 2 н/о н/о +22.4 +15.5 65 +26 +26 жарко 1017.8 1014.6
02 15.08 ЮВ 3 н/о н/о +29.2 +15.7 44 +32 +32 душно 1017.3 1014.1 +18.5
05 15.08 СВ 3 н/о 3/0 2000 м
[]
+31.7 +13.5 33 +33 +33 жарко 1014.3 1011.1
08 15.08 СВ 1 н/о н/о +32.4 +13.1 31 +33 +33 жарко 1013.0 1009.8
11 15.08 С 4 н/о н/о +26.6 +18.5 61 +31 +31 душно 1014.9 1011.7
14 15.08 С 3 н/о н/о +23.8 +18.7 73 +28 +28 душно 1016.1 1012.9 +33.1
17 15.08 штиль 0 н/о 1/1 1000 м
[]
+22.0 +18.4 80 +27 +27 душно 1015.5 1012.3
20 15.08 ЮЗ 2 н/о н/о +20.7 +17.9 84 +25 +25 комфорт 1015.0 1011.8
23 15.08 Ю 2 н/о н/о +24.3 +18.5 70 +29 +29 душно 1016.8 1013.6
02 16.08 ЮВ 3 н/о 1/1 1500 м
[]
+30.1 +16.5 44 +33 +33 душно 1016.1 1012.9 +20.1
05 16.08 СВ 3 н/о 1/0 2000 м
[]
+33.9 +13.4 29 +35 +35 очень
жарко
1012.8 1009.6
08 16.08 В 2 н/о н/о +33.8 +12.2 27 +34 +34 очень
жарко
1011.8 1008.6
11 16.08 С 5 н/о н/о +27.2 +18.5 59 +32 +32 очень
душно
1014.2 1011.0
14 16.08 С 2 н/о н/о +24.8 +19.2 71 +30 +30 душно 1015.0 1011.8 +35.2
17 16.08 штиль 0 н/о н/о +23.5 +18.8 75 +28 +28 душно 1014.4 1011.2
20 16.08 З 2 н/о н/о +21.8 +19.0 84 +27 +27 душно 1014.1 1010.9
23 16.08 ЮЗ 1 н/о 3/0 2000 м
[]
+23.8 +19.7 78 +29 +29 душно 1016.3 1013.1
02 17.08 В 3 н/о 6/6 1000 м
[]
+30.5 +19.2 51 +36 +36 очень
душно
1015.4 1012.2 +21.1
05 17.08 СВ 3 н/о 10/10 1500 м
[]
+31.8 +18.0 44 +36 +36 очень
душно
1012.7 1009.5
08 17.08 С 6 н/о 4/0 2000 м
[]
+30.9 +19.6 51 +37 +37 очень
душно
1012.4 1009.2
11 17.08 С 3 н/о 10/10 1500 м
[]
+27.7 +20.8 66 +35 +35 очень
душно
1014.4 1011.2
14 17.08 С 2 н/о н/о +25.2 +21.3 79 +32 +32 очень
душно
1015.4 1012.2 +33.9
17 17.08 штиль 0 н/о н/о +23.2 +20.5 85 +31 +31 очень
душно
1014.6 1011.4
20 17.08 ЮЗ 2 н/о н/о +22.4 +20.7 90 +29 +29 очень
душно
1014.7 1011.5
23 17.08 ЮЗ 2 н/о н/о +25.4 +21.7 80 +33 +33 очень
душно
1015.9 1012.7
02 18.08 Ю 2 н/о 5/5 1000 м
[]
+30.0 +20.5 57 +37 +37 очень
душно
1014.9 1011.7 +22.2
05 18.08 Ю 2 н/о 3/0
[]
+32.7 +18.8 44 +38 +38 очень
душно
1011.6 1008.4
08 18.08 Ю 2 н/о 1/0 2000 м
[]
+32.9 +18.7 43 +38 +38 очень
душно
1010.4 1007.2

 

Местоположение метеостанции Джаберу (Северная территория, Австралия): широта -12.67 долгота 132.90 высота над уровнем моря 28 м.

В архиве по умолчанию представлена погода в Джаберу за последнюю неделю. Архивные данные за месяц целиком и за предыдущие месяцы, начиная с января 2011 года, Вы можете получить, выбрав интересующий диапазон дат из раскрывающегося списка и нажав кнопку "Ввод!".


*Определитесь, кто Вы:
робот инопланетянин человек

Внимание! Время в таблицах - всемирное. Для получения местного времени необходимо прибавить поправку, которая равна 9.5 ч.

Смотрите также архив погоды в соседних городах и на ближайших метеорологических станциях:

Погода на Центральном плато Арнем (Северная территория, Австралия) (76 км)
Погода в Пойнт Стьюарт (Северная территория, Австралия) (121 км)
Погода в Уорруви (Северная территория, Австралия) (125 км)
Погода в Манингриде (Северная территория, Австралия) (160 км)
Погода в Милд Пойнт (Северная территория, Австралия) (174 км)
Погода на Острове Маклер (Северная территория, Австралия) (180 км)
Погода в Булман Уимол (Северная территория, Австралия) (191 км)
Погода в Кейп-Доне (Северная территория, Австралия) (194 км)
Погода в Батчелоре (Северная территория, Австралия) (208 км)
Погода в Тиндале (Северная территория, Австралия) (213 км)

Пояснения к столбцам:

Ветер - указаны скорость ветра в м/с - средняя за 10 мин, порывы в срок и между сроками (в фигурных скобках) и направление, откуда дует ветер: С - северный, СВ - северо-восточный, В - восточный, ЮВ - юго-восточный, Ю - южный, ЮЗ - юго-западный, З - западный, СЗ - северо-западный.
Видимость - горизонтальная дальность видимости в метрах или километрах. При видимости от 1 до 10 км при отсутствии осадков обычно наблюдается дымка, при ухудшении видимости до 1 км и менее - туман. В сухую погоду видимость может ухудшаться дымом, пылью или мглою.
Явления - указаны атмосферные явления, наблюдавшиеся в срок или в последний час перед сроком; фигурными скобками обозначены явления, наблюдавшиеся между сроками (за 1-3 часа до срока); квадратными скобками обозначены град или гололедные отложения с указанием их диаметра в мм.
Облачность - указаны через наклонную черту общая и нижняя облачность в баллах и высота нижней границы облаков в метрах; квадратными скобками обозначены формы облаков: Ci - перистые, Cs - перисто-слоистые, Cc - перисто-кучевые, Ac - высококучевые, As - высокослоистые, Sc - слоисто-кучевые, Ns - слоисто-дождевые, Cu - кучевые, Cb - кучево-дождевые. Подробнее классификацию облаков см. в Атласе облаков (PDF).
T - Температура воздуха - температура, измеренная на высоте 2 м над землей.
Td - Температура точки росы - температура, при понижении до которой содержащийся в воздухе водяной пар достигнет насыщения.
f - Относительная влажность воздуха - влажноcть воздуха, измеренная на высоте 2 м над землей.
Te - Эффективная температура - температура, которую ощущает одетый по сезону человек в тени. Характеристика душности погоды. При расчете учитывается влияние влажности воздуха и скорости ветра на теплоощущения человека.
Tes - Эффективная температура на солнце - температура, которую ощущает человек, с поправкой на солнечный нагрев. Характеристика знойности погоды. Зависит от высоты солнца над горизонтом, облачности и скорости ветра. Ночью, в пасмурную погоду, а также при ветре 12 м/с и более поправка равна нулю.
P - Атмосферное давление - приведенное к уровню моря атмосферное давление.
Po - Атмосферное давление - измеренное на уровне метеостанции атмосферное давление.
Tmin - Минимальная температура - минимум температуры воздуха на высоте 2 м над землей.
Tmax - Максимальная температура - максимум температуры воздуха на высоте 2 м над землей.
R - Количество осадков - Количество выпавших осадков за период времени, мм. При наведении курсора мыши на число - период времени, за который выпало указанное количество осадков.
R24 - Количество осадков - Количество выпавших осадков за 24 часа, мм.
S - Снежный покров - Высота снежного покрова, см. При наведении курсора мыши на число - состояние снежного покрова и степень покрытия местности в баллах.